Home   Weather   Bandar-Abbas   Past weeks

Flag for Iran Past Weather in Bandar-Abbas, Iran — Yesterday and Last 2 Weeks

Now
88 °F

Fog.


Feels Like: 112 °F
Forecast: 85 / 95 °F
Wind: 7 mph from South

Location: Bandarabbass

Current Time: Sep 25, 2016 at 2:13:22 AM

Latest Report: Sep 25, 2016 at 1:30 AM


Visibility: 2 mi

Pressure: 29.56 "Hg

Humidity: 89%

Dew Point: 84 °F

Location of Bandar-AbbasLocation

Past Weather in Bandar-Abbas — Graph

°F

Bandar-Abbas Temperature Yesterday

Maximum temperature yesterday: 95 °F (at 1:00 PM)
Minimum temperature yesterday: 84 °F (at 2:30 AM)
Average temperature yesterday: 90 °F

High & Low Weather Summary for the Past Weeks

 TemperatureHumidityPressure
High97 °F (Sep 17, 1:00 PM)89% (Sep 17, 3:30 AM)29.77 "Hg (Sep 17, 3:30 AM)
Low81 °F (Sep 22, 5:30 AM)53% (Sep 14, 10:00 AM)29.53 "Hg (Sep 17, 6:30 PM)
Average90 °F74%29.65 "Hg
* Reported Sep 10 1:30 AM — Sep 25 1:00 AM, Bandar-Abbas, Weather by CustomWeather, © 2016

Note: Actual official high and low records may vary slightly from our data, if they occured in-between our weather recording intervals... More about our weather records

Advertising

Bandar-Abbas Weather History for the Previous 24 Hours

Scroll right to see more
 ConditionsComfort  
Time TempWeatherWind HumidityBarometerVisibility
1:00 AM
Sun, Sep 25
88 °FFog.9 mph89%29.56 "Hg2 mi
12:30 AM88 °FFog.9 mph89%29.56 "Hg2 mi
12:00 AM90 °FFog.9 mph84%29.56 "Hg2 mi
11:30 PM
Sat, Sep 24
90 °FFog.9 mph84%29.56 "Hg2 mi
10:30 PM90 °FFog.5 mph84%29.56 "Hg2 mi
10:00 PM90 °FFog.9 mph84%29.56 "Hg2 mi
9:30 PM90 °FFog.9 mph84%29.56 "Hg2 mi
9:00 PM90 °FFog.9 mph84%29.56 "Hg2 mi
8:30 PM90 °FFog.7 mph84%29.56 "Hg2 mi
8:00 PM90 °FFog.14 mph84%29.56 "Hg2 mi
7:55 PM90 °FFog.14 mph84%29.56 "Hg2 mi
7:30 PM90 °FFog.9 mph79%29.56 "Hg2 mi
7:00 PM90 °FFog.9 mph84%29.53 "Hg2 mi
6:55 PM90 °FFog.9 mph84%29.53 "Hg2 mi
6:30 PM90 °FFog.12 mph79%29.53 "Hg2 mi
6:00 PM90 °FHaze.9 mph79%29.53 "Hg2 mi
5:55 PM90 °FHaze.9 mph79%29.53 "Hg2 mi
5:30 PM91 °FHaze.9 mph71%29.53 "Hg2 mi
5:00 PM91 °FSandstorm.16 mph75%29.53 "Hg2 mi
4:55 PM91 °FSandstorm.16 mph75%29.53 "Hg2 mi
4:30 PM93 °FSandstorm.16 mph67%29.53 "Hg2 mi
4:00 PM93 °FSandstorm.16 mph67%29.53 "Hg3 mi
3:55 PM93 °FSandstorm.16 mph67%29.53 "Hg3 mi
3:30 PM95 °FHaze.14 mph63%29.53 "Hg3 mi
3:00 PM95 °FHaze.12 mph63%29.53 "Hg3 mi
2:55 PM95 °FHaze.12 mph63%29.53 "Hg3 mi
2:30 PM95 °FHaze.9 mph60%29.56 "Hg3 mi
2:00 PM95 °FScattered clouds.12 mph63%29.56 "Hg3 mi
1:30 PM95 °FScattered clouds.12 mph60%29.59 "Hg3 mi
1:00 PM95 °FScattered clouds.12 mph60%29.59 "Hg3 mi
12:30 PM93 °FScattered clouds.14 mph67%29.62 "Hg3 mi
12:00 PM93 °FScattered clouds.12 mph67%29.62 "Hg3 mi
11:30 AM93 °FScattered clouds.12 mph71%29.62 "Hg3 mi
11:00 AM93 °FScattered clouds.12 mph71%29.65 "Hg3 mi
10:30 AM93 °FScattered clouds.9 mph67%29.65 "Hg2 mi
10:00 AM93 °FPartly sunny.14 mph67%29.65 "Hg2 mi
9:30 AM91 °FPartly sunny.12 mph71%29.65 "Hg2 mi
9:00 AM91 °FScattered clouds.7 mph71%29.65 "Hg2 mi
8:30 AM90 °FPartly sunny.7 mph75%29.65 "Hg2 mi
8:00 AM90 °FPartly sunny.7 mph75%29.65 "Hg2 mi
7:30 AM90 °FPartly sunny.5 mph75%29.65 "Hg2 mi
7:00 AM88 °FFog.7 mph79%29.65 "Hg2 mi
6:30 AM84 °FFog.5 mph84%29.65 "Hg2 mi
6:00 AM84 °FFog.5 mph84%29.65 "Hg2 mi
5:30 AM84 °FFog.5 mph84%29.62 "Hg2 mi
4:30 AM84 °FFog.7 mph84%29.62 "Hg2 mi
3:30 AM86 °FFog.5 mph79%29.62 "Hg2 mi
2:30 AM84 °FFog.5 mph89%29.62 "Hg2 mi
Weather by CustomWeather, © 2016

See weather overviewHow to use our weather pages